Home   Weather   Churchill   Past weeks
Flag for Canada

Past Weather in Churchill, Manitoba, Canada — Yesterday and Last 2 Weeks

Now
7 °F

Partly sunny.


Feels Like: -8 °F
Forecast: 13 / 5 °F
Wind: 10 mph from Northeast

Location: Churchill

Current Time: Apr 8, 2020 at 8:58:25 pm

Latest Report: Apr 8, 2020 at 8:00 pm


Visibility: 15 mi

Pressure: 30.01 "Hg

Humidity: 85%

Dew Point: 3 °F

Location of ChurchillLocation

Past Weather in Churchill — Graph

°F

Churchill Temperature Yesterday

Maximum temperature yesterday: 16 °F (at 4:00 pm)
Minimum temperature yesterday: 0 °F (at 3:25 am)
Average temperature yesterday: 6 °F

High & Low Weather Summary for the Past Weeks

 TemperatureHumidityPressure
High25 °F (Mar 27, 12:00 pm)100% (Apr 4, 8:45 am)30.67 "Hg (Apr 4, 8:45 am)
Low-15 °F (Mar 25, 7:00 am)39% (Mar 26, 2:00 pm)29.53 "Hg (Mar 27, 8:00 am)
Average7 °F84%30.14 "Hg
* Reported Mar 24 7:00 pm — Apr 8 7:00 pm, Churchill. Weather by CustomWeather, © 2020

Note: Actual official high and low records may vary slightly from our data, if they occured in-between our weather recording intervals... More about our weather records

Churchill Weather History for the Previous 24 Hours

Scroll right to see more
 ConditionsComfort  
Time TempWeatherWind HumidityBarometerVisibility
7:00 pm
Wed, Apr 8
7 °FScattered clouds.12 mph85%29.99 "Hg15 mi
6:00 pm10 °FScattered clouds.13 mph79%29.96 "Hg15 mi
5:46 pm10 °FPartly sunny.12 mph85%29.96 "Hg15 mi
5:00 pm10 °FPartly sunny.15 mph85%29.93 "Hg15 mi
4:00 pm10 °FLow clouds.15 mph85%29.91 "Hg15 mi
3:00 pm10 °FPartly sunny.14 mph85%29.89 "Hg15 mi
2:00 pm10 °FPassing clouds.15 mph79%29.87 "Hg15 mi
1:00 pm9 °FBroken clouds.13 mph85%29.86 "Hg15 mi
12:31 pm9 °FPartly sunny.12 mph85%29.86 "Hg10 mi
12:00 pm7 °FLight snow. Low clouds.13 mph92%29.85 "Hg8 mi
11:00 am9 °FLight snow. Low clouds.10 mph85%29.83 "Hg8 mi
10:34 am7 °FLight snow. Low clouds.12 mph92%29.82 "Hg8 mi
10:20 am7 °FLight snow. Low clouds.12 mph85%29.82 "Hg8 mi
10:00 am5 °FPartly sunny.12 mph92%29.81 "Hg10 mi
9:44 am7 °FPartly sunny.12 mph85%29.81 "Hg15 mi
8:43 am7 °FLight snow. Broken clouds.13 mph85%29.81 "Hg10 mi
8:09 am5 °FLight snow. Partly sunny.13 mph85%29.81 "Hg10 mi
7:00 am5 °FPartly sunny.14 mph85%29.80 "Hg15 mi
6:00 am5 °FPassing clouds.14 mph92%29.78 "Hg15 mi
5:00 am7 °FPassing clouds.12 mph85%29.77 "Hg15 mi
4:40 am7 °FOvercast.13 mph85%29.77 "Hg15 mi
4:00 am7 °FLight snow. Overcast.14 mph85%29.76 "Hg15 mi
3:00 am9 °FLight snow. Overcast.13 mph85%29.77 "Hg12 mi
2:00 am9 °FLight snow. Overcast.15 mph85%29.77 "Hg10 mi
1:00 am10 °FLight snow. Overcast.16 mph79%29.76 "Hg15 mi
12:00 am10 °FLight snow. Mostly cloudy.15 mph79%29.77 "Hg15 mi
11:16 pm
Tue, Apr 7
12 °FLight snow. Mostly cloudy.17 mph73%29.78 "Hg15 mi
11:00 pm12 °FMostly cloudy.18 mph73%29.78 "Hg15 mi
10:00 pm12 °FOvercast.17 mph79%29.78 "Hg15 mi
9:00 pm12 °FMostly cloudy.18 mph85%29.78 "Hg15 mi
8:00 pm12 °FOvercast.18 mph92%29.77 "Hg15 mi
Weather by CustomWeather, © 2020

See weather overview

Advertising